Miscellaneous Local Product
Issued by NWS North Platte, NE

Home | Current Version | Previous Version | Graphics & Text | Print | Product List | Glossary On
Versions: 1 2 3 4 5 6 7 8 9 10 11 12 13 14 15 16 17 18 19 20 21 22 23 24 25 26 27 28 29 30 31 32 33 34 35 36 37 38 39 40 41 42 43 44 45 46 47 48 49 50
000
AXUS43 KLBF 261310
MISLBF


WESTERN AND NORTH CENTRAL NEBRASKA HOURLY WEATHER ROUNDUP
NATIONAL WEATHER SERVICE NORTH PLATTE NE
700 AM CST WED NOV 26 2014

***STATIONS NOT REPORTING VARIABLES SUCH AS SKY/WEATHER OR
PRESSURE ARE PROVIDED BY THE NEBRASKA DEPARTMENT OF
ROADS...RAWS...AND APRS NETWORKS...AND ARE NOT UNDER
NATIONAL WEATHER SERVICE QUALITY CONTROL***

...OBSERVATIONS IN AND NEAR THE EASTERN PANHANDLE OF NEBRASKA...

CITY           SKY/WX    TMP DP  RH WIND       PRES   REMARKS
PINE RIDGE     CLOUDY    25  19  78 N7        30.18R WCI  17
CHADRON        CLOUDY    40  20  44 NE6       30.20S
ALLIANCE       CLOUDY    25  20  81 N13       30.16S WCI  14
SIDNEY         CLOUDY    28  24  85 NW8       30.17R WCI  20
WHITECLAY        N/A     24  18  78 S6          N/A  WCI  16
CRESCENT LAKE    N/A     25  20  79 N12G22      N/A  WCI  14
LISCO            N/A     30  20  68 NW8         N/A  WCI  22
BIG SPRINGS      N/A     31  24  75 N3          N/A
$$

...OBSERVATIONS IN NORTH CENTRAL NEBRASKA...

CITY           SKY/WX    TMP DP  RH WIND       PRES   REMARKS
VALENTINE      CLOUDY    22  19  89 N21G28    30.18R WCI   6
THEDFORD       CLOUDY    27  21  77 N21G29    30.15R WCI  14
AINSWORTH      CLOUDY    22  19  89 N24G32    30.15R WCI   6
O`NEILL        CLOUDY    24  23  96 NW28G33   30.08R FOG     WCI   8
ORD            CLOUDY    27  21  78 NW29G37   30.06R WCI  11
BROKEN BOW     CLOUDY    29  21  72 N28G38    30.08R WCI  14
BROWNLEE         N/A     23  19  83 N28         N/A  WCI   6
SPRINGVIEW       N/A     22  18  84 NW10G24     N/A  WCI  11
BREWSTER         N/A     28  25  86 NW29        N/A  WCI  13
SARGENT          N/A     27  22  79 NW12G20     N/A  WCI  17
COMSTOCK         N/A     33  26  75 W23         N/A  WCI  21
CHAMBERS         N/A     24  22  90 N12G23      N/A  WCI  13
EWING            N/A     25  23  91 CALM        N/A
$$

...OBSERVATIONS IN SOUTHWEST NEBRASKA AND FAR NORTHEAST COLORADO...

CITY           SKY/WX    TMP DP  RH WIND       PRES   REMARKS
WRAY           CLOUDY    32  29  89 W14G24    30.19R WCI  22
HOLYOKE        FAIR      34  27  75 NW9G17    30.18R WCI  26
IMPERIAL       CLOUDY    34  21  59 NW17G23   30.17R WCI  23
OGALLALA       CLOUDY    31  22  71 N17G23    30.17R WCI  19
NORTH PLATTE   CLOUDY    28  19  69 NW9G21    30.15R WCI  19
MCCOOK         CLOUDY    36  21  54 N24G31    30.13R WCI  24
LEXINGTON      CLOUDY    32  22  65 NW23G33   30.12R WCI  19
PAXTON           N/A     29  22  74 NW15        N/A  WCI  18
BRADY            N/A     28  20  70 SE3G14      N/A
GOTHENBURG       N/A     28  19  69 NW20        N/A  WCI  15
CALLAWAY         N/A     26  20  76 NW13        N/A  WCI  15
$$

...NORTH PLATTE AREA...

CITY           SKY/WX    TMP DP  RH WIND       PRES   REMARKS
AIRPORT        CLOUDY    28  19  69 NW9G21    30.15R WCI  19
DOWNTOWN         N/A     28  19  68 N8G17       N/A  WCI  20
$$

...SOME WEATHER OBSERVATIONS FROM AROUND THE REGION...

CITY           SKY/WX    TMP DP  RH WIND       PRES   REMARKS
DENVER         CLOUDY    26  22  84 CALM      30.20R
LARAMIE        FLURRIES  20  18  92 SE6       30.06F WCI  12
CHEYENNE       FLURRIES  22  19  89 N9        30.14S WCI  12
SCOTTSBLUFF    CLOUDY    30  24  78 NW8       30.19R WCI  22
RAPID CITY     CLOUDY    25  20  81 N8        30.17S WCI  16
PIERRE         CLOUDY    19  14  81 N15G24    30.25R WCI   5
WINNER         CLOUDY    21  15  78 N23G30    30.20R WCI   5
SIOUX FALLS    CLOUDY    26  22  84 N22G30    30.01R WCI  12
OMAHA          LGT RAIN  39  34  82 NW18G31   29.89R WCI  30
GRAND ISLAND   CLOUDY    32  24  72 NW32G46   30.04R WCI  17
KANSAS CITY    PTCLDY    36  33  89 W7        29.93R WCI  30
WICHITA        CLOUDY    44  29  55 NW15      30.03R
HAYS           PTCLDY    39  25  56 NW17G25   30.09R WCI  30
LIBERAL        CLEAR     32  25  74 W16       30.20R WCI  21
GOODLAND       MOCLDY    30  27  88 NW21G26   30.16R WCI  17
$$



USA.gov is the U.S. government's official web portal to all federal, state and local government web resources and services.